Location: DAV
(33.5613°N, 82.7640°W)
Time: 14:22:59
(UTC-04:00)

Envisat - Visible Passes

Search period start: 25 April 2018 00:00
Search period end: 05 May 2018 00:00
Orbit: 764 x 766 km, 98.2° (Epoch: 25 April)

Date Brightness Start Highest point End Pass type
(mag) Time Alt. Az. Time Alt. Az. Time Alt. Az.
25 Apr 3.0 20:55:43 10° SSE 21:00:47 85° ENE 21:05:54 10° N visible
26 Apr 5.3 21:59:26 10° SW 22:03:15 21° W 22:07:05 10° NW visible
27 Apr 3.8 21:21:27 10° S 21:26:22 51° W 21:31:19 10° NNW visible
28 Apr 3.0 20:44:39 10° SSE 20:49:40 66° ENE 20:54:42 10° N visible
28 Apr 5.8 22:27:43 10° WSW 22:29:03 11° W 22:30:23 10° WNW visible
29 Apr 4.9 21:47:45 10° SSW 21:52:02 27° W 21:56:21 10° NW visible
30 Apr 3.3 21:10:11 10° S 21:15:13 67° W 21:20:16 10° NNW visible
01 May 3.3 20:33:41 10° SSE 20:38:33 50° ENE 20:43:28 10° N visible
01 May 5.6 22:15:01 10° SW 22:17:48 15° W 22:20:35 10° WNW visible
02 May 4.5 21:36:14 10° SSW 21:40:50 35° W 21:45:29 10° NNW visible
03 May 3.0 20:58:59 10° SSE 21:04:04 87° W 21:09:10 10° NNW visible
04 May 5.4 22:02:59 10° SW 22:06:34 19° W 22:10:09 10° NW visible
